LZ1HCO-25 Weather Reports


time (UTC)temp
F
wind
direction
speed
knots
gust
knots
rain 1hr
in
rain 24hr
in
rain mn
in
humidity
%
barometer
mb
20260507114041 68 0 0.0 0.0 0.00 0.00 0.00 99 969.0
20260507113529 67 0 0.0 0.0 0.00 0.00 0.00 99 969.0
20260507113018 68 0 0.0 0.0 0.00 0.00 0.00 99 969.0
20260507112507 67 0 0.0 0.0 0.00 0.00 0.00 99 969.0
20260507111955 68 0 0.0 0.0 0.00 0.00 0.00 99 969.0
20260507111444 67 0 0.0 0.0 0.00 0.00 0.00 99 969.0
20260507110933 68 0 0.0 0.0 0.00 0.00 0.00 99 969.0
20260507110421 67 0 0.0 0.0 0.00 0.00 0.00 99 969.0
20260507105910 66 0 0.0 0.0 0.00 0.00 0.00 99 969.0
20260507105358 67 0 0.0 0.0 0.00 0.00 0.00 99 969.0
20260507104847 67 0 0.0 0.0 0.00 0.00 0.00 99 969.0
20260507104336 66 0 0.0 0.0 0.00 0.00 0.00 99 969.0
20260507103739 67 0 0.0 0.0 0.00 0.00 0.00 99 969.0
20260507103228 67 0 0.0 0.0 0.00 0.00 0.00 99 969.0
20260507102716 69 0 0.0 0.0 0.00 0.00 0.00 63 969.0
20260507102205 69 0 0.0 0.0 0.00 0.00 0.00 60 969.0
20260507101654 69 0 0.0 0.0 0.00 0.00 0.00 59 969.0
20260507101142 69 0 0.0 0.0 0.00 0.00 0.00 57 969.0
20260507100631 70 0 0.0 0.0 0.00 0.00 0.00 58 969.0
20260507100120 70 0 0.0 0.0 0.00 0.00 0.00 57 969.0
20260507095608 70 0 0.0 0.0 0.00 0.00 0.00 57 969.0
20260507095057 70 0 0.0 0.0 0.00 0.00 0.00 56 969.0
20260507094546 69 0 0.0 0.0 0.00 0.00 0.00 57 969.0
20260507094034 69 0 0.0 0.0 0.00 0.00 0.00 57 969.0
20260507093523 70 0 0.0 0.0 0.00 0.00 0.00 58 969.0
20260507093011 70 0 0.0 0.0 0.00 0.00 0.00 59 969.0
20260507092500 70 0 0.0 0.0 0.00 0.00 0.00 61 969.0
20260507091949 70 0 0.0 0.0 0.00 0.00 0.00 59 969.0
20260507091437 71 0 0.0 0.0 0.00 0.00 0.00 58 969.0
20260507090452 71 0 0.0 0.0 0.00 0.00 0.00 55 969.0
20260507085312 71 0 0.0 0.0 0.00 0.00 0.00 54 969.0
20260507084800 71 0 0.0 0.0 0.00 0.00 0.00 52 969.0
20260507084249 72 0 0.0 0.0 0.00 0.00 0.00 54 969.0
20260507083738 72 0 0.0 0.0 0.00 0.00 0.00 52 969.0
20260507083226 73 0 0.0 0.0 0.00 0.00 0.00 52 969.0
20260507082715 71 0 0.0 0.0 0.00 0.00 0.00 52 969.0
20260507082203 71 0 0.0 0.0 0.00 0.00 0.00 54 969.0
20260507081652 71 0 0.0 0.0 0.00 0.00 0.00 52 969.0
20260507081141 71 0 0.0 0.0 0.00 0.00 0.00 53 969.0
20260507080629 71 0 0.0 0.0 0.00 0.00 0.00 52 969.0
20260507080118 71 0 0.0 0.0 0.00 0.00 0.00 55 969.0
20260507075607 70 0 0.0 0.0 0.00 0.00 0.00 54 969.0
20260507075055 71 0 0.0 0.0 0.00 0.00 0.00 54 969.0
20260507074544 71 0 0.0 0.0 0.00 0.00 0.00 55 969.0
20260507074033 71 0 0.0 0.0 0.00 0.00 0.00 53 969.0
20260507073521 70 0 0.0 0.0 0.00 0.00 0.00 55 969.0
20260507073010 70 0 0.0 0.0 0.00 0.00 0.00 53 969.0
20260507072458 69 0 0.0 0.0 0.00 0.00 0.00 53 969.0
20260507071947 69 0 0.0 0.0 0.00 0.00 0.00 55 969.0
20260507071436 69 0 0.0 0.0 0.00 0.00 0.00 58 969.0
20260507070924 69 0 0.0 0.0 0.00 0.00 0.00 60 969.0
20260507070413 68 0 0.0 0.0 0.00 0.00 0.00 59 969.0
20260507065902 68 0 0.0 0.0 0.00 0.00 0.00 63 969.0
20260507065350 67 0 0.0 0.0 0.00 0.00 0.00 66 969.0
20260507064839 68 0 0.0 0.0 0.00 0.00 0.00 67 969.0
20260507064328 68 0 0.0 0.0 0.00 0.00 0.00 67 969.0
20260507063816 67 0 0.0 0.0 0.00 0.00 0.00 67 969.0
20260507063305 67 0 0.0 0.0 0.00 0.00 0.00 68 969.0
20260507062753 67 0 0.0 0.0 0.00 0.00 0.00 70 969.0
20260507062242 66 0 0.0 0.0 0.00 0.00 0.00 73 969.0
20260507061731 66 0 0.0 0.0 0.00 0.00 0.00 73 969.0
20260507061219 65 0 0.0 0.0 0.00 0.00 0.00 78 969.0
20260507060708 65 0 0.0 0.0 0.00 0.00 0.00 82 969.0
20260507060157 65 0 0.0 0.0 0.00 0.00 0.00 91 969.0
20260507055645 64 0 0.0 0.0 0.00 0.00 0.00 99 969.0
20260507055134 63 0 0.0 0.0 0.00 0.00 0.00 99 969.0
20260507054623 60 0 0.0 0.0 0.00 0.00 0.00 99 969.0
20260507054111 60 0 0.0 0.0 0.00 0.00 0.00 99 969.0
20260507053600 59 0 0.0 0.0 0.00 0.00 0.00 99 969.0
20260507053124 59 0 0.0 0.0 0.00 0.00 0.00 99 969.0
20260507052612 59 0 0.0 0.0 0.00 0.00 0.00 99 969.0
20260507052101 59 0 0.0 0.0 0.00 0.00 0.00 99 969.0
20260507051549 59 0 0.0 0.0 0.00 0.00 0.00 99 969.0
20260507051038 60 0 0.0 0.0 0.00 0.00 0.00 99 969.0
20260507050527 59 0 0.0 0.0 0.00 0.00 0.00 99 969.0
20260507050016 59 0 0.0 0.0 0.00 0.00 0.00 99 969.0
20260507045504 58 0 0.0 0.0 0.00 0.00 0.00 99 969.0
20260507044953 58 0 0.0 0.0 0.00 0.00 0.00 99 969.0
20260507044441 58 0 0.0 0.0 0.00 0.00 0.00 99 969.0
20260507043930 59 0 0.0 0.0 0.00 0.00 0.00 99 969.0
20260507043419 59 0 0.0 0.0 0.00 0.00 0.00 99 969.0
20260507042907 59 0 0.0 0.0 0.00 0.00 0.00 99 969.0
20260507042356 60 0 0.0 0.0 0.00 0.00 0.00 99 969.0
20260507041845 59 0 0.0 0.0 0.00 0.00 0.00 99 968.0
20260507041333 60 0 0.0 0.0 0.00 0.00 0.00 99 968.0
20260507040822 60 0 0.0 0.0 0.00 0.00 0.00 99 968.0
20260507040311 59 0 0.0 0.0 0.00 0.00 0.00 99 968.0
20260507035759 60 0 0.0 0.0 0.00 0.00 0.00 99 968.0
20260507035248 60 0 0.0 0.0 0.00 0.00 0.00 99 968.0
20260507034736 60 0 0.0 0.0 0.00 0.00 0.00 99 968.0
20260507034225 60 0 0.0 0.0 0.00 0.00 0.00 99 968.0
20260507033714 61 0 0.0 0.0 0.00 0.00 0.00 99 968.0
20260507033202 64 0 0.0 0.0 0.00 0.00 0.00 81 967.0
20260507032651 65 0 0.0 0.0 0.00 0.00 0.00 75 967.0
20260507032140 65 0 0.0 0.0 0.00 0.00 0.00 75 967.0
20260507031628 65 0 0.0 0.0 0.00 0.00 0.00 76 967.0
20260507031117 65 0 0.0 0.0 0.00 0.00 0.00 78 967.0
20260507030605 65 0 0.0 0.0 0.00 0.00 0.00 77 967.0
20260507030054 65 0 0.0 0.0 0.00 0.00 0.00 79 967.0
20260507025543 65 0 0.0 0.0 0.00 0.00 0.00 79 967.0
20260507025031 64 0 0.0 0.0 0.00 0.00 0.00 83 967.0
20260507024520 65 0 0.0 0.0 0.00 0.00 0.00 81 967.0
20260507024009 65 0 0.0 0.0 0.00 0.00 0.00 82 967.0
20260507023457 64 0 0.0 0.0 0.00 0.00 0.00 82 967.0
20260507022946 64 0 0.0 0.0 0.00 0.00 0.00 84 967.0
20260507022435 64 0 0.0 0.0 0.00 0.00 0.00 83 967.0
20260507021923 64 0 0.0 0.0 0.00 0.00 0.00 83 967.0
20260507021412 64 0 0.0 0.0 0.00 0.00 0.00 85 967.0
20260507020900 64 0 0.0 0.0 0.00 0.00 0.00 85 967.0
20260507020349 64 0 0.0 0.0 0.00 0.00 0.00 84 967.0
20260507015838 65 0 0.0 0.0 0.00 0.00 0.00 81 967.0
20260507015326 65 0 0.0 0.0 0.00 0.00 0.00 79 967.0
20260507014815 65 0 0.0 0.0 0.00 0.00 0.00 79 967.0
20260507014304 65 0 0.0 0.0 0.00 0.00 0.00 79 967.0
20260507013752 65 0 0.0 0.0 0.00 0.00 0.00 79 967.0
20260507013241 65 0 0.0 0.0 0.00 0.00 0.00 83 967.0
20260507012730 65 0 0.0 0.0 0.00 0.00 0.00 83 967.0
20260507012218 65 0 0.0 0.0 0.00 0.00 0.00 84 967.0
20260507011707 65 0 0.0 0.0 0.00 0.00 0.00 87 967.0
20260507011156 64 0 0.0 0.0 0.00 0.00 0.00 95 967.0
20260507010644 61 0 0.0 0.0 0.00 0.00 0.00 99 967.0
20260507010304 60 0 0.0 0.0 0.00 0.00 0.00 99 967.0
20260507005753 60 0 0.0 0.0 0.00 0.00 0.00 99 967.0
20260507005242 60 0 0.0 0.0 0.00 0.00 0.00 99 967.0
20260507004730 59 0 0.0 0.0 0.00 0.00 0.00 99 967.0
20260507004219 59 0 0.0 0.0 0.00 0.00 0.00 99 967.0
20260507003708 60 0 0.0 0.0 0.00 0.00 0.00 99 967.0
20260507003156 59 0 0.0 0.0 0.00 0.00 0.00 99 967.0
20260507002645 58 0 0.0 0.0 0.00 0.00 0.00 99 967.0
20260507002134 58 0 0.0 0.0 0.00 0.00 0.00 99 967.0
20260507001622 58 0 0.0 0.0 0.00 0.00 0.00 99 967.0
20260507001111 58 0 0.0 0.0 0.00 0.00 0.00 99 967.0
20260507000600 58 0 0.0 0.0 0.00 0.00 0.00 99 967.0
20260507000048 59 0 0.0 0.0 0.00 0.00 0.00 99 967.0
20260506235537 58 0 0.0 0.0 0.00 0.00 0.00 99 967.0
20260506235025 58 0 0.0 0.0 0.00 0.00 0.00 99 967.0
20260506234514 58 0 0.0 0.0 0.00 0.00 0.00 99 967.0
20260506234003 58 0 0.0 0.0 0.00 0.00 0.00 99 967.0
20260506233451 58 0 0.0 0.0 0.00 0.00 0.00 99 967.0
20260506232940 57 0 0.0 0.0 0.00 0.00 0.00 99 967.0
20260506232429 57 0 0.0 0.0 0.00 0.00 0.00 99 967.0
20260506231917 58 0 0.0 0.0 0.00 0.00 0.00 99 967.0
20260506231406 58 0 0.0 0.0 0.00 0.00 0.00 99 967.0
20260506230855 58 0 0.0 0.0 0.00 0.00 0.00 99 967.0
20260506230343 58 0 0.0 0.0 0.00 0.00 0.00 99 967.0
20260506225832 57 0 0.0 0.0 0.00 0.00 0.00 99 967.0
20260506225320 58 0 0.0 0.0 0.00 0.00 0.00 99 967.0
20260506224809 57 0 0.0 0.0 0.00 0.00 0.00 99 967.0
20260506224258 58 0 0.0 0.0 0.00 0.00 0.00 99 967.0
20260506223746 58 0 0.0 0.0 0.00 0.00 0.00 99 967.0
20260506223235 57 0 0.0 0.0 0.00 0.00 0.00 99 967.0
20260506222724 58 0 0.0 0.0 0.00 0.00 0.00 99 967.0
20260506222212 57 0 0.0 0.0 0.00 0.00 0.00 99 967.0
20260506221701 58 0 0.0 0.0 0.00 0.00 0.00 99 967.0
20260506221150 58 0 0.0 0.0 0.00 0.00 0.00 99 967.0
20260506220638 58 0 0.0 0.0 0.00 0.00 0.00 99 967.0
20260506220127 58 0 0.0 0.0 0.00 0.00 0.00 99 967.0
20260506215616 58 0 0.0 0.0 0.00 0.00 0.00 99 967.0
20260506215104 58 0 0.0 0.0 0.00 0.00 0.00 99 967.0
20260506214553 58 0 0.0 0.0 0.00 0.00 0.00 99 967.0
20260506214041 59 0 0.0 0.0 0.00 0.00 0.00 99 967.0
20260506213530 59 0 0.0 0.0 0.00 0.00 0.00 99 967.0
20260506213019 58 0 0.0 0.0 0.00 0.00 0.00 99 967.0
20260506212507 58 0 0.0 0.0 0.00 0.00 0.00 99 967.0
20260506211956 58 0 0.0 0.0 0.00 0.00 0.00 99 967.0
20260506211445 59 0 0.0 0.0 0.00 0.00 0.00 99 967.0
20260506210933 59 0 0.0 0.0 0.00 0.00 0.00 99 967.0
20260506210422 59 0 0.0 0.0 0.00 0.00 0.00 99 967.0
20260506205911 59 0 0.0 0.0 0.00 0.00 0.00 99 967.0
20260506205359 59 0 0.0 0.0 0.00 0.00 0.00 99 967.0
20260506204848 59 0 0.0 0.0 0.00 0.00 0.00 99 967.0
20260506204337 59 0 0.0 0.0 0.00 0.00 0.00 99 967.0
20260506203825 59 0 0.0 0.0 0.00 0.00 0.00 99 967.0
20260506203314 60 0 0.0 0.0 0.00 0.00 0.00 99 967.0
20260506202802 60 0 0.0 0.0 0.00 0.00 0.00 99 967.0
20260506202251 60 0 0.0 0.0 0.00 0.00 0.00 99 967.0
20260506201740 60 0 0.0 0.0 0.00 0.00 0.00 99 967.0
20260506201228 60 0 0.0 0.0 0.00 0.00 0.00 99 967.0
20260506200717 59 0 0.0 0.0 0.00 0.00 0.00 99 967.0
20260506200206 60 0 0.0 0.0 0.00 0.00 0.00 99 967.0
20260506195654 60 0 0.0 0.0 0.00 0.00 0.00 99 967.0
20260506195143 60 0 0.0 0.0 0.00 0.00 0.00 99 967.0
20260506194632 61 0 0.0 0.0 0.00 0.00 0.00 99 967.0
20260506194120 61 0 0.0 0.0 0.00 0.00 0.00 99 967.0
20260506193609 61 0 0.0 0.0 0.00 0.00 0.00 99 967.0
20260506193058 61 0 0.0 0.0 0.00 0.00 0.00 99 967.0
20260506192546 61 0 0.0 0.0 0.00 0.00 0.00 99 967.0
20260506192035 62 0 0.0 0.0 0.00 0.00 0.00 99 967.0
20260506191523 62 0 0.0 0.0 0.00 0.00 0.00 99 967.0
20260506191012 63 0 0.0 0.0 0.00 0.00 0.00 99 967.0
20260506190501 62 0 0.0 0.0 0.00 0.00 0.00 99 967.0
20260506185949 62 0 0.0 0.0 0.00 0.00 0.00 99 967.0
20260506185438 62 0 0.0 0.0 0.00 0.00 0.00 99 967.0
20260506184927 63 0 0.0 0.0 0.00 0.00 0.00 99 967.0
20260506184415 63 0 0.0 0.0 0.00 0.00 0.00 99 967.0
20260506183904 63 0 0.0 0.0 0.00 0.00 0.00 99 967.0
20260506183353 63 0 0.0 0.0 0.00 0.00 0.00 99 967.0
20260506182841 64 0 0.0 0.0 0.00 0.00 0.00 99 967.0
20260506182330 64 0 0.0 0.0 0.00 0.00 0.00 99 966.0
20260506181818 64 0 0.0 0.0 0.00 0.00 0.00 99 966.0
20260506181307 65 0 0.0 0.0 0.00 0.00 0.00 99 966.0
20260506180756 65 0 0.0 0.0 0.00 0.00 0.00 99 966.0
20260506180245 65 0 0.0 0.0 0.00 0.00 0.00 99 966.0
20260506175733 65 0 0.0 0.0 0.00 0.00 0.00 99 966.0
20260506175222 66 0 0.0 0.0 0.00 0.00 0.00 99 966.0
20260506174710 66 0 0.0 0.0 0.00 0.00 0.00 99 966.0
20260506174159 66 0 0.0 0.0 0.00 0.00 0.00 99 966.0
20260506173647 66 0 0.0 0.0 0.00 0.00 0.00 99 966.0
20260506173136 68 0 0.0 0.0 0.00 0.00 0.00 99 966.0
20260506172625 68 0 0.0 0.0 0.00 0.00 0.00 99 966.0
20260506172113 69 0 0.0 0.0 0.00 0.00 0.00 99 966.0
20260506171602 70 0 0.0 0.0 0.00 0.00 0.00 92 966.0
20260506171051 71 0 0.0 0.0 0.00 0.00 0.00 89 966.0
20260506170539 71 0 0.0 0.0 0.00 0.00 0.00 85 966.0
20260506170028 72 0 0.0 0.0 0.00 0.00 0.00 79 966.0
20260506165517 72 0 0.0 0.0 0.00 0.00 0.00 82 966.0
20260506165005 73 0 0.0 0.0 0.00 0.00 0.00 66 966.0
20260506164454 73 0 0.0 0.0 0.00 0.00 0.00 75 966.0
20260506163942 74 0 0.0 0.0 0.00 0.00 0.00 62 965.0
20260506163431 74 0 0.0 0.0 0.00 0.00 0.00 62 965.0
20260506162920 74 0 0.0 0.0 0.00 0.00 0.00 62 965.0
20260506162408 74 0 0.0 0.0 0.00 0.00 0.00 59 965.0
20260506161857 74 0 0.0 0.0 0.00 0.00 0.00 58 965.0
20260506161346 74 0 0.0 0.0 0.00 0.00 0.00 55 965.0
20260506160834 75 0 0.0 0.0 0.00 0.00 0.00 57 965.0
20260506160323 75 0 0.0 0.0 0.00 0.00 0.00 56 965.0
20260506155812 75 0 0.0 0.0 0.00 0.00 0.00 55 965.0
20260506155300 75 0 0.0 0.0 0.00 0.00 0.00 54 965.0
20260506154749 74 0 0.0 0.0 0.00 0.00 0.00 55 965.0
20260506154237 74 0 0.0 0.0 0.00 0.00 0.00 55 965.0
20260506153726 74 0 0.0 0.0 0.00 0.00 0.00 53 965.0
20260506153215 74 0 0.0 0.0 0.00 0.00 0.00 53 965.0
20260506152703 75 0 0.0 0.0 0.00 0.00 0.00 51 965.0
20260506152152 76 0 0.0 0.0 0.00 0.00 0.00 52 966.0
20260506151641 76 0 0.0 0.0 0.00 0.00 0.00 52 966.0
20260506151129 75 0 0.0 0.0 0.00 0.00 0.00 52 966.0
20260506150618 75 0 0.0 0.0 0.00 0.00 0.00 51 966.0
20260506150107 76 0 0.0 0.0 0.00 0.00 0.00 50 966.0
20260506145555 77 0 0.0 0.0 0.00 0.00 0.00 50 966.0
20260506145044 77 0 0.0 0.0 0.00 0.00 0.00 51 966.0
20260506144532 77 0 0.0 0.0 0.00 0.00 0.00 51 966.0
20260506144021 77 0 0.0 0.0 0.00 0.00 0.00 51 966.0
20260506143510 78 0 0.0 0.0 0.00 0.00 0.00 50 966.0
20260506142958 78 0 0.0 0.0 0.00 0.00 0.00 51 966.0
20260506142447 79 0 0.0 0.0 0.00 0.00 0.00 53 966.0
20260506141936 77 0 0.0 0.0 0.00 0.00 0.00 52 966.0
20260506141424 75 0 0.0 0.0 0.00 0.00 0.00 55 966.0
20260506140913 75 0 0.0 0.0 0.00 0.00 0.00 54 966.0
20260506140402 75 0 0.0 0.0 0.00 0.00 0.00 53 966.0
20260506135850 75 0 0.0 0.0 0.00 0.00 0.00 54 966.0
20260506135339 76 0 0.0 0.0 0.00 0.00 0.00 55 966.0
20260506134827 76 0 0.0 0.0 0.00 0.00 0.00 54 966.0
20260506134316 76 0 0.0 0.0 0.00 0.00 0.00 51 966.0
20260506133805 76 0 0.0 0.0 0.00 0.00 0.00 55 966.0
20260506133253 76 0 0.0 0.0 0.00 0.00 0.00 52 966.0
20260506132742 78 0 0.0 0.0 0.00 0.00 0.00 53 966.0
20260506132231 79 0 0.0 0.0 0.00 0.00 0.00 53 966.0
20260506131719 77 0 0.0 0.0 0.00 0.00 0.00 50 966.0
20260506131458 78 0 0.0 0.0 0.00 0.00 0.00 51 966.0
20260506130947 77 0 0.0 0.0 0.00 0.00 0.00 51 966.0
20260506130435 79 0 0.0 0.0 0.00 0.00 0.00 48 966.0
20260506125924 79 0 0.0 0.0 0.00 0.00 0.00 48 966.0
20260506125413 80 0 0.0 0.0 0.00 0.00 0.00 48 966.0
20260506124901 79 0 0.0 0.0 0.00 0.00 0.00 46 966.0
20260506124350 79 0 0.0 0.0 0.00 0.00 0.00 45 966.0
20260506123839 80 0 0.0 0.0 0.00 0.00 0.00 46 966.0
20260506123327 80 0 0.0 0.0 0.00 0.00 0.00 47 966.0
20260506122816 79 0 0.0 0.0 0.00 0.00 0.00 47 966.0
20260506122306 80 0 0.0 0.0 0.00 0.00 0.00 45 966.0
20260506121753 83 0 0.0 0.0 0.00 0.00 0.00 47 966.0
20260506121242 82 0 0.0 0.0 0.00 0.00 0.00 48 966.0
20260506120730 81 0 0.0 0.0 0.00 0.00 0.00 48 966.0
20260506120219 82 0 0.0 0.0 0.00 0.00 0.00 48 966.0
20260506115708 81 0 0.0 0.0 0.00 0.00 0.00 45 967.0
20260506115156 81 0 0.0 0.0 0.00 0.00 0.00 45 967.0
20260506114645 82 0 0.0 0.0 0.00 0.00 0.00 47 967.0